YN1GRE-3 Weather Reports


time (UTC)temp
C
wind
direction
speed
KPH
gust
KPH
rain 1hr
cm
rain 24hr
cm
rain mn
cm
humidity
%
barometer
mb
20260502232659 29 100 12.9 0.0 0.00 0.00 0.00 79 1009.0
20260502231158 30 100 12.9 0.0 0.00 0.00 0.00 79 1009.0
20260502225657 30 100 14.5 0.0 0.00 0.00 0.00 79 1009.0
20260502220736 26 90 17.7 0.0 0.00 0.00 0.00 79 1009.0
20260502215235 26 90 17.7 0.0 0.00 0.00 0.00 79 1009.0
20260502212023 27 90 17.7 0.0 0.00 0.00 0.00 79 1009.0
20260502210522 27 90 17.7 0.0 0.00 0.00 0.00 79 1009.0
20260502205022 28 90 17.7 0.0 0.00 0.00 0.00 79 1009.0
20260502203521 28 90 17.7 0.0 0.00 0.00 0.00 79 1009.0
20260502202021 29 90 17.7 0.0 0.00 0.00 0.00 79 1009.0
20260502200520 30 90 17.7 0.0 0.00 0.00 0.00 79 1009.0
20260502195020 30 90 17.7 0.0 0.00 0.00 0.00 79 1009.0
20260502193519 27 90 17.7 0.0 0.00 0.00 0.00 79 1010.0
20260502192019 27 100 8.0 0.0 0.00 0.00 0.00 79 1010.0
20260502190517 28 100 9.7 0.0 0.00 0.00 0.00 79 1010.0
20260502185016 28 100 9.7 0.0 0.00 0.00 0.00 79 1010.0
20260502161340 28 100 8.0 0.0 0.00 0.00 0.00 89 1012.0
20260502151339 28 90 8.0 0.0 0.00 0.00 0.00 94 1011.0
20260502120701 23 41 4.8 8.0 0.00 0.00 0.00 86 1011.0
20260502115201 23 41 4.8 8.0 0.00 0.00 0.00 86 1011.0
20260502113700 24 41 4.8 8.0 0.00 0.00 0.00 86 1011.0
20260502112200 22 54 4.8 6.4 0.00 0.00 0.00 87 1010.0
20260502110659 22 54 4.8 6.4 0.00 0.00 0.00 87 1010.0
20260502105158 22 54 4.8 6.4 0.00 0.00 0.00 87 1010.0
20260502101948 22 71 6.4 8.0 0.00 0.00 0.00 87 1010.0
20260502100447 22 71 6.4 8.0 0.00 0.00 0.00 87 1010.0
20260502090233 21 78 6.4 9.7 0.00 0.00 0.00 86 1010.0
20260502071520 22 84 6.4 9.7 0.00 0.00 0.00 86 1010.0
20260502070019 22 84 6.4 9.7 0.00 0.00 0.00 86 1010.0
20260502064518 22 84 6.4 9.7 0.00 0.00 0.00 86 1010.0
20260502063018 22 89 8.0 11.3 0.00 0.00 0.00 86 1010.0
20260502061517 23 89 8.0 11.3 0.00 0.00 0.00 86 1011.0
20260502054306 22 88 8.0 11.3 0.00 0.00 0.00 86 1011.0
20260502052806 23 88 8.0 11.3 0.00 0.00 0.00 86 1011.0
20260502051306 22 88 8.0 11.3 0.00 0.00 0.00 86 1011.0
20260502045804 23 88 8.0 11.3 0.00 0.00 0.00 86 1011.0
20260502044303 22 88 8.0 11.3 0.00 0.00 0.00 86 1011.0
20260502041053 22 95 8.0 12.9 0.00 0.00 0.00 86 1011.0
20260502035553 22 95 8.0 12.9 0.00 0.00 0.00 86 1011.0
20260502034052 22 95 8.0 12.9 0.00 0.00 0.00 86 1011.0
20260502032552 22 90 9.7 22.5 0.00 0.00 0.00 85 1011.0
20260502031051 22 90 9.7 22.5 0.00 0.00 0.00 85 1011.0
20260502025551 22 90 9.7 22.5 0.00 0.00 0.00 85 1011.0
20260502024051 23 80 17.7 0.0 0.00 0.00 0.00 84 1011.0
20260502020839 23 80 17.7 0.0 0.00 0.00 0.00 84 1010.0
20260502015338 24 80 17.7 0.0 0.00 0.00 0.00 84 1010.0
20260502013838 25 80 17.7 0.0 0.00 0.00 0.00 84 1010.0
20260502012337 25 80 17.7 0.0 0.00 0.00 0.00 84 1009.0
20260502010837 26 80 17.7 0.0 0.00 0.00 0.00 84 1009.0
20260502005335 26 80 17.7 0.0 0.00 0.00 0.00 84 1009.0
20260502003835 27 80 17.7 0.0 0.00 0.00 0.00 84 1009.0
20260502002335 27 80 17.7 0.0 0.00 0.00 0.00 84 1008.0
20260502000834 28 80 17.7 0.0 0.00 0.00 0.00 84 1008.0
20260501235334 28 80 17.7 0.0 0.00 0.00 0.00 84 1008.0